THEOS

Last updated on Sat Apr 13 2024 01:02:24 GMT+0100 (British Summer Time)

1 33396U 08049A 24103.56620433 .00000101 00000+0 67927-4 0 9990 2 33396 98.6622 170.8280 0001260 98.7599 261.3720 14.20047869805040
UTC large
Height (km)
Speed (km/s)
/
Latitude / Longitude
Inclination (degrees)
Orbital Period (minutes)
Azimuth
Elevation
Range (km)
Doppler Factor

Next 0 passes for location: London (51.5072 / 0.1276)

Sorry there are no passes over London.